Regional Weather Roundup
Issued by NWS Kansas City/Pleasant Hill, MO

Home | Current Version | Previous Version | Text Only | Print | Product List | Glossary On
Versions: 1 2 3 4 5 6 7 8 9 10 11 12 13 14 15 16 17 18 19 20 21 22 23 24 25 26 27 28 29 30 31 32 33 34 35 36 37 38 39 40 41 42 43 44 45 46 47 48 49 50
000
ASUS43 KEAX 280511
RWREAX

WEATHER ROUNDUP FOR EASTERN KANSAS AND NORTHWEST MISSOURI
NATIONAL WEATHER SERVICE KANSAS CITY/PLEASANT HILL MO
1200 AM CDT SAT MAR 28 2015

KSZ040-057-103>105-MOZ028-029-037-043-280600-
...KANSAS CITY METROPOLITAN AREA...

CITY           SKY/WX    TMP DP  RH WIND       PRES   REMARKS
K.C. INTL      CLOUDY    39  22  50 SE10      30.12F WCI  32
K.C. DOWNTOWN  CLOUDY    42  20  41 E9        30.13F
LEES SUMMIT    CLOUDY    40  20  44 E7        30.14F
OLATHE - IXD   CLOUDY    40  23  50 E6        30.13F
OLATHE - OJC   CLOUDY    40  21  46 E7        30.12F
LAWRENCE       CLOUDY    39  25  57 E6        30.13F WCI  35

$$

MOZ001>008-011>017-020>025-030>033-038>040-044>046-053-054-280600-
...NORTHERN AND CENTRAL MISSOURI...

CITY           SKY/WX    TMP DP  RH WIND       PRES   REMARKS
ST. JOSEPH     CLOUDY    38  24  57 E7        30.14F WCI  33
MOSBY            N/A     37  23  56 E3        30.15F
WARRENSBURG    CLOUDY    37  23  56 NE5       30.16F WCI  34
WHITEMAN AFB   CLOUDY    39  25  56 E5        30.15F
CLINTON        CLOUDY    39  30  70 E3        30.17F
SEDALIA        CLOUDY    40  23  50 CALM      30.18S
WARSAW         NOT AVBL
MARSHALL       CLOUDY    41  27  56 CALM      30.17F
CHILLICOTHE      N/A     39  23  52 CALM      30.17F
MOBERLY        MOCLDY    34  23  64 E3        30.18S
KIRKSVILLE     CLOUDY    32  18  56 E6        30.17F WCI  26

$$

MOZ041-047>049-056>058-063>065-088>090-097-280600-
...EASTERN AND SOUTHERN MISSOURI...

CITY           SKY/WX    TMP DP  RH WIND       PRES   REMARKS
ST. LOUIS INTL PTCLDY    33  17  51 E7        30.21S WCI  27
SPIRIT OF STL  PTCLDY    29  22  75 CALM      30.20S
COLUMBIA       CLOUDY    37  24  59 CALM      30.17S
JEFFERSON CITY CLOUDY    37  25  61 CALM      30.18F
MEXICO         MOCLDY    36  28  75 E3        30.18S
HANNIBAL       PTCLDY    32  10  40 E5        30.19S WCI  27
ROLLA          CLOUDY    35  26  69 CALM      30.15S
LEBANON        CLOUDY    37  21  52 CALM      30.17S
OSAGE BEACH    CLOUDY    37  27  65 CALM      30.18S
SPRINGFIELD    CLOUDY    41  22  46 NE9       30.15S
BRANSON        CLOUDY    41  21  45 CALM      30.16F
NEVADA         CLOUDY    41  28  60 E5        30.15F
JOPLIN         CLOUDY    43  24  47 E6        30.15S
WEST PLAINS    CLOUDY    36  25  64 E3        30.17S

$$

IAZ060-094-KSZ022-034>040-054-083-096-NEZ052-066-093-280600-
...KANSAS...SOUTHEAST NEBRASKA AND IOWA...

CITY           SKY/WX    TMP DP  RH WIND       PRES   REMARKS
TOPEKA         CLOUDY    40  22  48 E8        30.12F WCI  34
MANHATTAN      PTCLDY    38  22  52 SE9       30.09F WCI  31
EMPORIA        MOCLDY    35  22  58 E8        30.10S WCI  29
CHANUTE        MOCLDY    42  25  50 E7        30.12F
WICHITA        CLOUDY    45  29  53 S10       30.07S
OMAHA          CLOUDY    37  20  50 SE9       30.09F WCI  30
LINCOLN        CLOUDY    36  22  56 SE10      30.08F WCI  28
FALLS CITY     CLOUDY    36  24  62 SE7       30.10F WCI  30
LAMONI         CLOUDY    36  20  52 S3        30.13F
DES MOINES     CLOUDY    35  12  38 SE9       30.15F WCI  28

$$




USA.gov is the U.S. government's official web portal to all federal, state and local government web resources and services.